Ignacio, CO

5:57 AM MST on February 19, 2017 (GMT -0700)
Durango-La Plata County

Weather History for KDRO - July, 2014

Change the Weather History Date:

Saturday, July 5, 2014

  Actual Average Record
Temperature  
Mean Temperature 72 °F 67 °F  
Max Temperature 86 °F 86 °F 102 °F (1989)
Min Temperature 57 °F 49 °F 39 °F (1978)
Degree Days  
Heating Degree Days 0 1  
Month to date heating degree days 0 5  
Since 1 June heating degree days 88 120  
Since 1 July heating degree days 0 5  
Cooling Degree Days 7 3  
Month to date cooling degree days 30 13  
Year to date cooling degree days 49 42  
Since 1 June cooling degree days 44 41  
Growing Degree Days 20 (Base 50)    
Moisture  
Dew Point 46 °F    
Average Humidity 44    
Maximum Humidity 72    
Minimum Humidity 16    
Precipitation  
Precipitation T in 0.03 in 1.00 in (1970)
Month to date precipitation T 0.14  
Year to date precipitation 2.40 6.21  
Sea Level Pressure  
Sea Level Pressure 30.10 in    
Wind  
Wind Speed 5 mph (NNW)    
Max Wind Speed 29 mph    
Max Gust Speed 35 mph    
Visibility 10 miles    
Events Rain    
T = Trace of Precipitation, MM = Missing Value Source: NWS Daily Summary

Daily Weather History Graph

Daily Weather History Graph

Search for Another Location

Airport or City:

Trip Planner

Search our weather history database for the weather conditions in past years. The results will help you decide how hot, cold, wet, or windy it might be!

Date:

Astronomy

Jul. 05, 2014 Rise Set
Actual Time 5:56 AM MDT 8:34 PM MDT
Civil Twilight 5:26 AM MDT 9:05 PM MDT
Nautical Twilight 4:47 AM MDT 9:43 PM MDT
Astronomical Twilight 4:05 AM MDT 10:25 PM MDT
Moon 1:42 PM MDT (7/5) 12:38 AM MDT (7/5)
Length of Visible Light 15h 39m
Length of Day
14h 37m
First Quarter, 53% of the Moon is Illuminated
Jul 5
First Quarter
Jul 12
Full
Jul 18
Last Quarter
Jul 26
New
Aug 3
First Quarter

Hourly Weather History & Observations

Time (MDT) Temp. Dew Point Humidity Pressure Visibility Wind Dir Wind Speed Gust Speed Precip Events Conditions
12:53 AM 63.0 °F 46.9 °F 56% 30.12 in 10.0 mi NNE 3.5 mph - N/A   Mostly Cloudy
1:53 AM 61.0 °F 46.9 °F 60% 30.10 in 10.0 mi North 3.5 mph - N/A   Clear
2:53 AM 59.0 °F 46.9 °F 64% 30.09 in 10.0 mi North 4.6 mph - N/A   Clear
3:53 AM 59.0 °F 48.0 °F 67% 30.13 in 10.0 mi Calm Calm - N/A   Clear
4:53 AM 60.1 °F 46.9 °F 62% 30.14 in 10.0 mi North 3.5 mph - N/A   Clear
5:53 AM 57.0 °F 48.0 °F 72% 30.15 in 10.0 mi Calm Calm - N/A   Clear
6:53 AM 59.0 °F 48.0 °F 67% 30.16 in 10.0 mi North 5.8 mph - N/A   Partly Cloudy
7:53 AM 61.0 °F 48.0 °F 62% 30.16 in 10.0 mi Calm Calm - N/A   Mostly Cloudy
8:53 AM 64.9 °F 46.9 °F 52% 30.15 in 10.0 mi South 5.8 mph - N/A   Clear
9:53 AM 72.0 °F 45.0 °F 38% 30.12 in 10.0 mi WSW 3.5 mph - N/A   Clear
10:53 AM 75.9 °F 44.1 °F 32% 30.10 in 10.0 mi WSW 8.1 mph - N/A   Clear
11:53 AM 80.1 °F 45.0 °F 29% 30.07 in 10.0 mi SW 11.5 mph - N/A   Clear
12:53 PM 82.0 °F 45.0 °F 27% 30.04 in 10.0 mi Variable 4.6 mph - N/A   Clear
1:53 PM 84.0 °F 34.0 °F 17% 30.01 in 10.0 mi Variable 3.5 mph - N/A   Clear
2:53 PM 71.1 °F 46.9 °F 42% 30.08 in 10.0 mi North 23.0 mph 32.2 mph 0.00 in Rain Light Rain
3:53 PM 68.0 °F 46.9 °F 47% 30.10 in 10.0 mi West 6.9 mph - 0.00 in   Mostly Cloudy
4:53 PM 68.0 °F 46.9 °F 47% 30.12 in 10.0 mi West 4.6 mph - N/A   Overcast
5:53 PM 68.0 °F 48.9 °F 50% 30.12 in 10.0 mi NNW 5.8 mph - 0.00 in   Overcast
6:53 PM 70.0 °F 46.9 °F 44% 30.11 in 10.0 mi South 3.5 mph - 0.00 in   Mostly Cloudy
7:53 PM 70.0 °F 46.0 °F 42% 30.12 in 10.0 mi NE 5.8 mph - N/A   Clear
8:53 PM 70.0 °F 42.1 °F 36% 30.09 in 10.0 mi NNE 17.3 mph - N/A   Clear
9:53 PM 66.9 °F 43.0 °F 42% 30.07 in 10.0 mi Calm Calm - N/A   Clear
10:53 PM 66.0 °F 44.1 °F 45% 30.08 in 10.0 mi North 3.5 mph - N/A   Clear
11:53 PM 63.0 °F 44.1 °F 50% 30.07 in 10.0 mi Calm Calm - N/A   Clear